Location: The Saddle
(36.8333°N, 80.3417°W)
Time: 04:08:53
(UTC-04:00)

SEEDS - Visible Passes

Search period start: 14 March 2026 00:00
Search period end: 24 March 2026 00:00
Orbit: 477 x 479 km, 97.8° (Epoch: 13 March)

Date Brightness Start Highest point End Pass type
(mag) Time Alt. Az. Time Alt. Az. Time Alt. Az.
14 Mar ? 07:01:42 10° N 07:05:07 44° WNW 07:08:30 10° SSW visible
15 Mar ? 06:35:10 10° NNE 06:38:43 73° ESE 06:42:15 10° S visible
16 Mar ? 06:09:03 10° NE 06:12:12 29° E 06:15:20 10° SSE visible
17 Mar ? 05:43:45 10° ENE 05:45:32 13° E 05:47:19 10° SE visible
18 Mar ? 06:48:50 10° N 06:52:22 71° WNW 06:55:54 10° SSW visible
19 Mar ? 06:22:20 10° NNE 06:25:46 44° E 06:29:10 10° S visible
20 Mar ? 05:56:24 10° NE 05:59:01 19° E 06:01:37 10° SE visible
22 Mar ? 06:35:23 10° NNE 06:38:55 69° ESE 06:42:26 10° S visible
23 Mar ? 06:08:59 10° NE 06:12:05 28° E 06:15:09 10° SSE visible
